Showing default

INTELSAT 32E, 41945

Orbit data source: Space-Track

INTELSAT 32E, 41945 is an American payload satellite in GEO that was launched on Tue, 14 Feb 2017 UTC via an ARIANE 5ECA launch vehicle from the French Guiana (FRGUI). Payloads include a variety of satellites, spacecraft, and rockets equipped with specific instruments for various scientific and technological missions. These include communications satellites like Starlink; space stations such as the ISS; scientific satellites like the Hubble; Earth observation satellites from companies like Planet Labs, Umbra, and HawkEye 360; GPS; miniature CubeSats for education and research; and military/defense satellites.

Loading next visibility...
INTELSAT 32E details
Identifier
41945, 2017-007B
Orbit
GEO
Last TLE update13 hours ago
Origin
Flag of USDTVLA/INTELU (US / ITSO)
ManufacturerAirbus/Toulouse
MissionOperational Commercial Communications
Bus & MotorEUROSTAR 3000X, R-4D?
Mass~6,300 kg wet, ~3,000 kg dry
Launch date (UTC)
2017-02-14 (8 years ago)
Launch vehicle
ARIANE 5ECA
Launch site
French Guiana (FRGUI)
Object type
Payload
Rocket body
Debris
Shape & HBRBox + 2 Pan, 39 m
Radar Cross Section46.485 m², Large (>1 m²)

Expand to show TLE details & history

TLE from 13 hours ago
0 INTELSAT 32E
1 41945U 17007B   24361.08451973 -.00000241  00000-0  00000-0 0  9999
2 41945   0.0133  54.5785 0000506  66.4696 321.2637  1.00269601 28823
Epoch: 2024-12-26T02:01Z
Definitive object data (Epoch: 2024-12-26T02:01:42.504Z)
Latitude0.02039°
Longitude-43.19533°
Altitude35,785.023 km
Speed3.075 km/s
True Right ascension05h 29m 12s
True Declination0° 01' 13"
Sunlit
Object was in daylight at TLE epoch
Visualization TLE readout
Latitude-0.02381°
Longitude145.89382°
Altitude35,788.615 km
Speed3.075 km/s
Apparent Right ascension18h 30m 18s
Apparent Declination-5° 49' 20"
Sunlit
Object is in daylight
Visualization observer readout
Local Sidereal Time13:57:51
Azimuth108.884° ESE
Elevation12.671°
Doppler factor1
Orbital elements
Apogee altitude35,790.411 km
Perigee altitude35,786.144 km
Semi-major axis42,166.415 km
Eccentricity0.0000506
Inclination0.0133°
RAAN54.5785°
Arg. of periapsis66.4696°
True anomaly321.26007°
Mean anomaly321.2637°
Eccentric anomaly321.26189°
Mean motion0.25066 °/min
BSTARUnknown
Orbital period1436.18 mins
Loading historical data...
41945 neighbors
Authenticating...
Loading maneuver chart data...
Loading historical data...
Loading historical data...
Loading historical data...
Loading historical data...
Loading historical data...
Loading historical data...
Loading historical data...
Other satellites on launch #7 in the year 2017 (2017-02-14 UTC)

INTELSAT 32E Visibility forecast

Observer location: undefined°, undefined

Span
Click to sort rows by Start time (UTC) header in descending order
Start Az.
Max El. time (UTC)
Max El. Az.
Max El.
End time (UTC)
End Az.
1440 mins2024-12-26 14:35:59.529Z108.898° ESE2024-12-27 04:36:59.529Z108.863° ESE12.405°2024-12-27 14:35:59.529Z108.907° ESE
|